Orbital Elements at Epoch 2459200.5 (2020-Dec-17.0) TDB
Reference: JPL 16 (heliocentric ecliptic J2000)
Element | Value | Uncertainty (1-sigma) | Units |
e | .1396512564831421 | 5.2897e-08 | |
a | 2.488494894358758 | 1.2582e-08 | au |
q | 2.140973455609673 | 1.2806e-07 | au |
i | 3.806962405385478 | 6.6695e-06 | deg |
node | 206.2936610363849 | 5.9497e-05 | deg |
peri | 329.4429621060588 | 6.4328e-05 | deg |
M | 103.1243171239556 | 2.518e-05 | deg |
tp | 2458789.764592493897 (2019-Nov-02.26459249) | 9.8689e-05 | TDB |
period | 1433.849462726268 3.93 | 1.0874e-05 2.977e-08 | d yr |
n | .2510723819748199 | 1.9041e-09 | deg/d |
Q | 2.836016333107842 | 1.4339e-08 | au |
|
| | Orbit Determination Parameters
Additional Information
|